Station THLO1 - Toledo Light No. 2 OH Image indicating link to RSS feed of recent meteorological observations for station THLO1


Conditions at THLO1 as of
(1:00 pm EDT)
1700 GMT on 04/18/2024:
     

Click on the graph icon in the table below to see a time series plot of the last five days of that observation.

5-day plot - Wind Direction Wind Direction (WDIR): S ( 170 deg true )
5-day plot - Wind Speed Wind Speed (WSPD): 4 kts
5-day plot - Wind Gust Wind Gust (GST): 5 kts
5-day plot - Atmospheric Pressure Atmospheric Pressure (PRES):30.04 in
5-day plot - Pressure Tendency Pressure Tendency (PTDY):+0.02 in ( Rising )
5-day plot - Air Temperature Air Temperature (ATMP): 54.7 °F
5-day plot - Dew Point Dew Point (DEWP): 44.1 °F
5-day plot - Wind Speed at 10 Meters Wind Speed at 10 meters (WSPD10M): 4 kts
5-day plot - Wind Speed at 20 Meters Wind Speed at 20 meters (WSPD20M): 6 kts
5-day plot -  Wind Speed, Wind Gust and Atmospheric Pressure Combined plot of Wind Speed, Gust, and Air Pressure
Previous observations
TIME
(EDT)
5-day plot - Wind Direction
WDIR
 
5-day plot - Wind Speed
WSPD
kts
5-day plot - Wind Gust
GST
kts
5-day plot - Wave Height
WVHT
ft
5-day plot - Dominant Wave Period
DPD
sec
5-day plot - Average Wave Period
APD
sec
5-day plot - Mean Wave Direction
MWD
 
5-day plot - Atmospheric Pressure
PRES
in
5-day plot - Pressure Tendency
PTDY
in
5-day plot - Air Temperature
ATMP
°F
5-day plot - Water Temperature
WTMP
°F
5-day plot - Dew Point
DEWP
°F
5-day plot - Salinity
SAL
psu
5-day plot - Visibility
VIS
nmi
5-day plot - Tide (above MLLW)
TIDE
ft
2024-04-18 12:00 pm SW 3 4----30.04+0.03 54.0- 46.2---
2024-04-18 11:00 amWNW 10 13----30.03+0.04 53.4- 44.1---
2024-04-18 10:00 am W 14 17----30.02+0.07 53.1- 43.3---
2024-04-18 09:00 am W 17 19----30.02+0.09 53.1- 44.4---
2024-04-18 08:00 am W 15 16----30.00+0.08 53.2- 45.7---
2024-04-18 07:00 amWSW 12 14----29.95+0.05 53.1- 47.5---
2024-04-18 06:00 amWSW 12 14----29.93+0.06 53.2- 48.2---
2024-04-18 05:00 am W 14 16----29.92+0.05 54.3- 48.0---
2024-04-18 04:00 am W 14 19----29.90+0.05 54.7- 48.6---
2024-04-18 03:00 am W 19 22----29.88+0.04 55.9- 48.2---
2024-04-18 02:00 am W 19 22----29.87+0.04 56.5- 48.7---
2024-04-18 01:00 amWSW 19 21----29.85+0.05 57.0- 49.3---
2024-04-18 12:00 amWSW 14 16----29.84+0.06 56.8- 50.5---
2024-04-17 11:00 pmWSW 13 14----29.83+0.07 57.7- 50.9---
2024-04-17 10:00 pmWSW 14 16----29.80+0.09 58.3- 51.1---
2024-04-17 09:00 pmWSW 13 15----29.78+0.11 58.5- 51.4---
2024-04-17 08:00 pm W 15 18----29.75+0.10 59.9- 51.1---
2024-04-17 07:00 pmWSW 21 24----29.72+0.08 61.3- 50.2---
2024-04-17 06:00 pmSSW 10 12----29.68+0.07 60.6- 56.8---
2024-04-17 05:00 pm SW 9 10----29.65+0.01 60.8- 57.9---
2024-04-17 04:00 pm SW 17 20----29.64-0.04 60.6- 57.9---
2024-04-17 03:00 pm S 20 22----29.61-0.11 65.5- 55.8---
2024-04-17 02:00 pmSSE 14 16----29.65-0.10 63.0- 56.7---
2024-04-17 01:00 pmSSE 13 15----29.69-0.08 60.6- 56.5---